SAA650 FAOR-VIDP

Flight info

Callsign SAA650
Flight time N/A
Altitude 39000
Route EGMEN1C EGMEN UQ2 EPSEK UM307 NESAM/N0489F360 UM307 PRA UL441 CLAVA/N0485F370 B459 APUNA/N0479F390 B459 BBB G208 ISRIS Q1 BUBNU A347 UKASO UKASO7G
Aircraft A346/H-VGDW/C

Departure

Time N/A
Airport O.R. Tambo International Airport (FAOR)

Arrival

Time 2026-05-05 21:16
Airport Indira Gandhi International Airport (VIDP)
Time Latitude Longitude Altitude Speed Heading
2026-05-05 13:22 -25.49314 29.14913 22719 ft 460 kts 40°
2026-05-05 13:23 -25.47118 29.17508 23069 ft 463 kts 40°
2026-05-05 13:23 -25.44903 29.20124 23393 ft 466 kts 40°
2026-05-05 13:23 -25.42687 29.22751 23688 ft 469 kts 40°
2026-05-05 13:23 -25.40460 29.25404 23964 ft 471 kts 40°
2026-05-05 13:24 -25.38220 29.28075 24215 ft 474 kts 40°
2026-05-05 13:24 -25.35970 29.30757 24474 ft 477 kts 40°
2026-05-05 13:24 -25.33706 29.33456 24766 ft 479 kts 40°
2026-05-05 13:24 -25.31430 29.36164 25033 ft 482 kts 40°
2026-05-05 13:25 -25.29139 29.38890 25332 ft 484 kts 39°
2026-05-05 13:25 -25.26840 29.41621 25612 ft 487 kts 39°
2026-05-05 13:25 -25.24523 29.44370 25898 ft 489 kts 39°
2026-05-05 13:25 -25.22198 29.47129 26172 ft 491 kts 39°
2026-05-05 13:26 -25.19865 29.49896 26456 ft 493 kts 39°
2026-05-05 13:26 -25.17556 29.52633 26718 ft 495 kts 39°
2026-05-05 13:26 -25.15202 29.55420 26970 ft 497 kts 39°
2026-05-05 13:26 -25.12836 29.58222 27222 ft 499 kts 39°
2026-05-05 13:27 -25.10462 29.61028 27472 ft 501 kts 39°
2026-05-05 13:27 -25.08070 29.63857 27695 ft 504 kts 39°
2026-05-05 13:27 -25.05677 29.66682 27995 ft 506 kts 39°
2026-05-05 13:27 -25.03263 29.69532 28221 ft 508 kts 39°
2026-05-05 13:28 -25.00849 29.72380 28474 ft 510 kts 39°
2026-05-05 13:28 -24.98424 29.75241 28716 ft 511 kts 39°
2026-05-05 13:28 -24.95988 29.78113 28951 ft 514 kts 39°
2026-05-05 13:28 -24.93536 29.81001 29203 ft 515 kts 39°
2026-05-05 13:29 -24.91079 29.83893 29413 ft 518 kts 39°
2026-05-05 13:29 -24.88611 29.86796 29659 ft 519 kts 39°
2026-05-05 13:29 -24.86134 29.89709 29907 ft 521 kts 39°
2026-05-05 13:29 -24.83658 29.92619 30160 ft 521 kts 39°
2026-05-05 13:30 -24.81178 29.95551 30347 ft 524 kts 39°
2026-05-05 13:30 -24.78689 29.98496 30521 ft 525 kts 40°
2026-05-05 13:30 -24.76199 30.01446 30741 ft 524 kts 40°
2026-05-05 13:30 -24.73718 30.04388 31011 ft 522 kts 40°
2026-05-05 13:31 -24.71245 30.07316 31286 ft 521 kts 39°
2026-05-05 13:31 -24.68778 30.10239 31556 ft 520 kts 39°
2026-05-05 13:31 -24.66319 30.13151 31800 ft 519 kts 40°
2026-05-05 13:31 -24.63861 30.16056 32010 ft 519 kts 40°
2026-05-05 13:32 -24.61400 30.18965 32242 ft 519 kts 40°
2026-05-05 13:32 -24.58950 30.21881 32526 ft 518 kts 40°
2026-05-05 13:32 -24.56551 30.24760 32820 ft 517 kts 40°
2026-05-05 13:32 -24.54123 30.27677 33053 ft 517 kts 40°
2026-05-05 13:33 -24.51695 30.30589 33307 ft 516 kts 40°
2026-05-05 13:33 -24.49269 30.33497 33572 ft 515 kts 40°
2026-05-05 13:33 -24.46847 30.36399 33843 ft 514 kts 40°
2026-05-05 13:33 -24.44426 30.39296 34067 ft 514 kts 39°
2026-05-05 13:34 -24.42004 30.42190 34257 ft 513 kts 40°
2026-05-05 13:34 -24.39584 30.45073 34488 ft 512 kts 40°
2026-05-05 13:34 -24.37172 30.47952 34725 ft 511 kts 40°
2026-05-05 13:34 -24.34774 30.50817 34968 ft 509 kts 40°
2026-05-05 13:35 -24.32374 30.53680 35150 ft 509 kts 39°
2026-05-05 13:35 -24.29974 30.56540 35331 ft 509 kts 39°
2026-05-05 13:35 -24.27580 30.59391 35528 ft 508 kts 39°
2026-05-05 13:35 -24.25181 30.62246 35731 ft 507 kts 39°
2026-05-05 13:36 -24.22794 30.65085 35908 ft 506 kts 39°
2026-05-05 13:36 -24.20406 30.67924 36081 ft 506 kts 39°
2026-05-05 13:36 -24.18014 30.70765 36257 ft 505 kts 39°
2026-05-05 13:36 -24.15630 30.73595 36437 ft 505 kts 39°
2026-05-05 13:37 -24.13251 30.76418 36582 ft 505 kts 39°
2026-05-05 13:37 -24.10865 30.79247 36736 ft 504 kts 39°
2026-05-05 13:37 -24.08516 30.82032 36893 ft 504 kts 39°
2026-05-05 13:37 -24.06141 30.84845 37037 ft 503 kts 39°
2026-05-05 13:38 -24.03758 30.87664 37147 ft 503 kts 39°
2026-05-05 13:38 -24.01385 30.90469 37282 ft 502 kts 39°
2026-05-05 13:38 -23.99013 30.93274 37398 ft 502 kts 39°
2026-05-05 13:38 -23.96640 30.96079 37520 ft 502 kts 39°
2026-05-05 13:39 -23.94267 30.98880 37625 ft 502 kts 39°
2026-05-05 13:39 -23.91896 31.01678 37706 ft 502 kts 39°
2026-05-05 13:39 -23.87147 31.07281 37904 ft 502 kts 39°
2026-05-05 13:40 -23.82393 31.12884 38100 ft 501 kts 39°
2026-05-05 13:40 -23.77682 31.18428 38282 ft 501 kts 38°
2026-05-05 13:41 -23.72939 31.24003 38438 ft 500 kts 38°
2026-05-05 13:41 -23.68193 31.29573 38534 ft 500 kts 39°
2026-05-05 13:42 -23.63449 31.35132 38651 ft 500 kts 39°
2026-05-05 13:42 -23.58709 31.40692 38758 ft 500 kts 39°
2026-05-05 13:43 -23.53962 31.46248 38807 ft 500 kts 39°
2026-05-05 13:43 -23.49212 31.51800 38839 ft 501 kts 39°
2026-05-05 13:44 -23.44285 31.57119 38841 ft 495 kts 33°
2026-05-05 13:44 -23.39037 31.61836 38841 ft 491 kts 31°
2026-05-05 13:45 -23.33701 31.66494 38839 ft 491 kts 31°
2026-05-05 13:45 -23.28363 31.71153 38838 ft 492 kts 31°
2026-05-05 13:46 -23.23023 31.75820 38843 ft 492 kts 31°
2026-05-05 13:46 -23.17691 31.80479 38831 ft 492 kts 31°
2026-05-05 13:47 -23.12344 31.85139 38845 ft 493 kts 31°
2026-05-05 13:47 -23.06996 31.89804 38845 ft 493 kts 31°
2026-05-05 13:48 -23.01675 31.94439 38853 ft 493 kts 31°
2026-05-05 13:48 -22.96310 31.99106 38839 ft 493 kts 32°
2026-05-05 13:49 -22.91014 32.03858 38842 ft 495 kts 33°
2026-05-05 13:49 -22.85725 32.08648 38841 ft 495 kts 33°
2026-05-05 13:50 -22.80416 32.13439 38845 ft 496 kts 33°
2026-05-05 13:50 -22.75100 32.18230 38846 ft 496 kts 33°
2026-05-05 13:51 -22.69791 32.23006 38854 ft 496 kts 33°
2026-05-05 13:51 -22.64474 32.27783 38849 ft 496 kts 33°
2026-05-05 13:52 -22.59152 32.32555 38845 ft 497 kts 33°
2026-05-05 13:52 -22.53826 32.37330 38842 ft 498 kts 33°
2026-05-05 13:53 -22.48522 32.42081 38848 ft 498 kts 33°
2026-05-05 13:53 -22.43175 32.46868 38846 ft 498 kts 33°
2026-05-05 13:54 -22.37833 32.51643 38849 ft 498 kts 33°
2026-05-05 13:54 -22.32488 32.56415 38850 ft 498 kts 33°
2026-05-05 13:55 -22.27145 32.61180 38843 ft 498 kts 33°
2026-05-05 13:55 -22.21786 32.65952 38840 ft 498 kts 33°
2026-05-05 13:56 -22.16439 32.70717 38847 ft 498 kts 33°
2026-05-05 13:56 -22.11087 32.75481 38849 ft 498 kts 33°
2026-05-05 13:57 -22.05730 32.80241 38855 ft 498 kts 33°
2026-05-05 13:57 -22.00397 32.85029 38855 ft 499 kts 34°
2026-05-05 13:58 -21.95128 32.89821 38852 ft 499 kts 34°
2026-05-05 13:58 -21.89825 32.94635 38864 ft 499 kts 34°
2026-05-05 13:59 -21.81864 33.01854 38865 ft 498 kts 34°
2026-05-05 14:00 -21.74780 33.08233 38868 ft 498 kts 34°
2026-05-05 14:00 -21.68523 33.13779 38868 ft 498 kts 34°
2026-05-05 14:01 -21.63174 33.18518 38866 ft 498 kts 34°
2026-05-05 14:01 -21.57824 33.23262 38867 ft 498 kts 34°
2026-05-05 14:02 -21.52475 33.28002 38869 ft 498 kts 34°
2026-05-05 14:02 -21.47126 33.32738 38869 ft 498 kts 34°
2026-05-05 14:03 -21.41776 33.37470 38871 ft 498 kts 34°
2026-05-05 14:03 -21.36422 33.42200 38872 ft 498 kts 34°
2026-05-05 14:04 -21.31105 33.46894 38871 ft 498 kts 34°
2026-05-05 14:04 -21.26620 33.50850 38870 ft 498 kts 34°
2026-05-05 14:05 -21.20404 33.56326 38875 ft 497 kts 34°
2026-05-05 14:05 -21.15956 33.60242 38876 ft 497 kts 34°
2026-05-05 14:06 -21.10608 33.64946 38879 ft 497 kts 34°
2026-05-05 14:06 -21.05254 33.69650 38875 ft 497 kts 34°
2026-05-05 14:07 -20.99907 33.74345 38878 ft 496 kts 34°
2026-05-05 14:07 -20.94564 33.79031 38882 ft 496 kts 34°
2026-05-05 14:08 -20.89219 33.83715 38877 ft 496 kts 34°
2026-05-05 14:08 -20.83910 33.88364 38883 ft 496 kts 34°
2026-05-05 14:09 -20.78567 33.93040 38890 ft 496 kts 34°
2026-05-05 14:09 -20.73224 33.97709 38882 ft 495 kts 34°
2026-05-05 14:10 -20.67986 34.02514 38896 ft 497 kts 37°
2026-05-05 14:10 -20.62832 34.07431 38887 ft 497 kts 37°
2026-05-05 14:11 -20.57673 34.12353 38892 ft 497 kts 37°
2026-05-05 14:11 -20.52514 34.17268 38894 ft 496 kts 37°
2026-05-05 14:12 -20.47360 34.22175 38886 ft 496 kts 37°
2026-05-05 14:12 -20.42207 34.27076 38895 ft 496 kts 37°
2026-05-05 14:13 -20.37049 34.31977 38898 ft 496 kts 37°
2026-05-05 14:13 -20.31895 34.36870 38895 ft 496 kts 37°
2026-05-05 14:14 -20.26771 34.41730 38898 ft 496 kts 37°
2026-05-05 14:14 -20.21613 34.46616 38893 ft 496 kts 37°
2026-05-05 14:15 -20.16453 34.51497 38895 ft 495 kts 37°
2026-05-05 14:15 -20.11300 34.56373 38904 ft 495 kts 37°
2026-05-05 14:16 -20.06149 34.61243 38905 ft 495 kts 37°
2026-05-05 14:16 -20.00994 34.66111 38902 ft 495 kts 37°
2026-05-05 14:17 -19.95848 34.70966 38892 ft 495 kts 37°
2026-05-05 14:17 -19.90692 34.75828 38884 ft 495 kts 37°
2026-05-05 14:18 -19.85531 34.80689 38874 ft 495 kts 37°
2026-05-05 14:18 -19.80546 34.85699 38875 ft 498 kts 43°
2026-05-05 14:19 -19.76007 34.91306 38878 ft 501 kts 49°
2026-05-05 14:19 -19.71946 34.97365 38879 ft 503 kts 51°
2026-05-05 14:20 -19.67964 35.03469 38901 ft 503 kts 52°
2026-05-05 14:20 -19.63971 35.09575 38904 ft 503 kts 51°
2026-05-05 14:21 -19.59976 35.15668 38905 ft 503 kts 51°
2026-05-05 14:21 -19.55975 35.21757 38905 ft 503 kts 51°
2026-05-05 14:22 -19.51971 35.27843 38905 ft 502 kts 52°
2026-05-05 14:22 -19.47991 35.33887 38907 ft 502 kts 52°
2026-05-05 14:23 -19.43987 35.39963 38909 ft 502 kts 52°
2026-05-05 14:23 -19.39980 35.46038 38915 ft 502 kts 52°
2026-05-05 14:24 -19.35973 35.52106 38911 ft 502 kts 52°
2026-05-05 14:24 -19.31959 35.58178 38916 ft 502 kts 52°
2026-05-05 14:25 -19.27950 35.64240 38916 ft 502 kts 52°
2026-05-05 14:25 -19.23935 35.70304 38917 ft 502 kts 52°
2026-05-05 14:26 -19.19919 35.76362 38917 ft 502 kts 52°
2026-05-05 14:26 -19.15900 35.82419 38917 ft 502 kts 52°
2026-05-05 14:27 -19.11884 35.88472 38920 ft 502 kts 52°
2026-05-05 14:27 -19.07888 35.94484 38919 ft 502 kts 52°
2026-05-05 14:28 -19.03864 36.00521 38915 ft 502 kts 52°
2026-05-05 14:28 -18.99836 36.06556 38924 ft 502 kts 52°
2026-05-05 14:29 -18.95807 36.12595 38924 ft 502 kts 52°
2026-05-05 14:29 -18.91777 36.18630 38925 ft 502 kts 52°
2026-05-05 14:30 -18.87750 36.24659 38927 ft 502 kts 52°
2026-05-05 14:30 -18.83745 36.30645 38928 ft 501 kts 52°
2026-05-05 14:31 -18.79714 36.36670 38931 ft 501 kts 52°
2026-05-05 14:31 -18.75652 36.42659 38930 ft 501 kts 51°
2026-05-05 14:32 -18.71561 36.48619 38929 ft 501 kts 51°
2026-05-05 14:32 -18.67473 36.54575 38929 ft 501 kts 51°
2026-05-05 14:33 -18.63386 36.60538 38934 ft 501 kts 51°
2026-05-05 14:33 -18.59302 36.66492 38934 ft 501 kts 52°
2026-05-05 14:34 -18.55214 36.72448 38934 ft 501 kts 52°
2026-05-05 14:34 -18.51126 36.78396 38935 ft 500 kts 52°
2026-05-05 14:35 -18.47039 36.84342 38935 ft 500 kts 52°
2026-05-05 14:35 -18.42969 36.90254 38938 ft 500 kts 52°
2026-05-05 14:36 -18.38880 36.96189 38943 ft 500 kts 52°
2026-05-05 14:36 -18.34789 37.02120 38939 ft 500 kts 52°
2026-05-05 14:37 -18.30696 37.08049 38944 ft 500 kts 52°
2026-05-05 14:37 -18.26626 37.13941 38946 ft 500 kts 52°
2026-05-05 14:38 -18.22527 37.19869 38943 ft 500 kts 52°
2026-05-05 14:38 -18.18431 37.25782 38942 ft 500 kts 52°
2026-05-05 14:39 -18.14329 37.31705 38945 ft 500 kts 52°
2026-05-05 14:39 -18.10223 37.37629 38946 ft 500 kts 52°
2026-05-05 14:40 -18.06116 37.43549 38945 ft 500 kts 52°
2026-05-05 14:40 -18.02008 37.49463 38948 ft 500 kts 52°
2026-05-05 14:41 -17.97934 37.55322 38950 ft 500 kts 52°
2026-05-05 14:41 -17.93832 37.61222 38948 ft 500 kts 52°
2026-05-05 14:42 -17.89725 37.67122 38948 ft 500 kts 52°
2026-05-05 14:42 -17.85655 37.73055 38951 ft 500 kts 54°
2026-05-05 14:43 -17.81788 37.79145 38951 ft 500 kts 55°
2026-05-05 14:43 -17.77933 37.85247 38952 ft 500 kts 55°
2026-05-05 14:44 -17.74078 37.91340 38951 ft 500 kts 55°
2026-05-05 14:44 -17.70250 37.97382 38953 ft 500 kts 55°
2026-05-05 14:45 -17.66402 38.03449 38952 ft 500 kts 55°
2026-05-05 14:45 -17.62543 38.09529 38951 ft 499 kts 55°
2026-05-05 14:46 -17.58687 38.15599 38954 ft 500 kts 55°
2026-05-05 14:46 -17.54825 38.21671 38955 ft 499 kts 55°
2026-05-05 14:47 -17.50964 38.27736 38958 ft 499 kts 55°
2026-05-05 14:47 -17.47111 38.33786 38956 ft 499 kts 55°
2026-05-05 14:48 -17.43252 38.39840 38956 ft 499 kts 55°
2026-05-05 14:48 -17.39415 38.45853 38956 ft 499 kts 55°
2026-05-05 14:49 -17.35554 38.51901 38959 ft 499 kts 55°
2026-05-05 14:49 -17.31685 38.57958 38959 ft 500 kts 55°
2026-05-05 14:50 -17.27820 38.64007 38960 ft 500 kts 55°
2026-05-05 14:50 -17.23985 38.70075 38960 ft 499 kts 56°
2026-05-05 14:51 -17.20165 38.76133 38959 ft 498 kts 56°
2026-05-05 14:51 -17.16341 38.82190 38959 ft 498 kts 56°
2026-05-05 14:52 -17.12514 38.88245 38964 ft 498 kts 56°
2026-05-05 14:52 -17.08685 38.94296 38966 ft 498 kts 56°
2026-05-05 14:53 -17.04862 39.00336 38963 ft 498 kts 56°
2026-05-05 14:53 -17.01038 39.06370 38964 ft 498 kts 56°
2026-05-05 14:54 -16.97237 39.12363 38967 ft 497 kts 56°
2026-05-05 14:54 -16.94030 39.17408 38967 ft 498 kts 56°
2026-05-05 14:55 -16.90196 39.23443 38968 ft 498 kts 56°
2026-05-05 14:55 -16.86363 39.29474 38968 ft 498 kts 56°
2026-05-05 14:56 -16.82527 39.35502 38981 ft 498 kts 56°
2026-05-05 14:56 -16.78692 39.41522 38981 ft 497 kts 56°
2026-05-05 14:57 -16.74858 39.47541 38970 ft 497 kts 56°
2026-05-05 14:57 -16.71046 39.53504 38976 ft 497 kts 56°
2026-05-05 14:58 -16.67177 39.59492 38970 ft 497 kts 56°
2026-05-05 14:58 -16.63313 39.65469 38970 ft 496 kts 56°
2026-05-05 14:59 -16.59445 39.71456 38969 ft 496 kts 56°
2026-05-05 14:59 -16.55585 39.77429 38971 ft 496 kts 56°
2026-05-05 15:00 -16.52373 39.82396 38983 ft 497 kts 56°
2026-05-05 15:00 -16.47869 39.89354 38972 ft 498 kts 56°
2026-05-05 15:01 -16.43988 39.95345 38972 ft 497 kts 56°
2026-05-05 15:01 -16.40116 40.01318 38972 ft 497 kts 56°
2026-05-05 15:02 -16.36234 40.07299 38973 ft 497 kts 56°
2026-05-05 15:02 -16.32358 40.13267 38972 ft 497 kts 56°
2026-05-05 15:03 -16.28479 40.19235 38973 ft 497 kts 56°
2026-05-05 15:03 -16.24600 40.25199 38974 ft 497 kts 56°
2026-05-05 15:04 -16.20712 40.31171 38971 ft 497 kts 56°
2026-05-05 15:04 -16.16829 40.37131 38970 ft 497 kts 56°
2026-05-05 15:05 -16.11031 40.46021 38976 ft 498 kts 56°
2026-05-05 15:06 -16.07132 40.51991 38973 ft 498 kts 56°
2026-05-05 15:06 -16.03228 40.57962 38972 ft 498 kts 55°
2026-05-05 15:07 -15.99330 40.63919 38972 ft 498 kts 55°
2026-05-05 15:07 -15.95423 40.69886 38973 ft 498 kts 55°
2026-05-05 15:08 -15.91540 40.75814 38971 ft 498 kts 55°
2026-05-05 15:08 -15.87631 40.81776 38972 ft 498 kts 55°
2026-05-05 15:09 -15.83723 40.87732 38972 ft 498 kts 55°
2026-05-05 15:09 -15.79814 40.93685 38973 ft 498 kts 55°
2026-05-05 15:10 -15.75907 40.99631 38974 ft 498 kts 55°
2026-05-05 15:10 -15.72002 41.05569 38970 ft 498 kts 55°
2026-05-05 15:11 -15.68085 41.11519 38969 ft 499 kts 55°
2026-05-05 15:11 -15.64164 41.17471 38969 ft 499 kts 55°
2026-05-05 15:12 -15.60242 41.23421 38979 ft 499 kts 55°
2026-05-05 15:12 -15.56320 41.29366 38976 ft 499 kts 55°
2026-05-05 15:13 -15.52392 41.35315 38969 ft 499 kts 55°
2026-05-05 15:13 -15.48463 41.41260 38968 ft 499 kts 55°
2026-05-05 15:14 -15.44537 41.47198 38983 ft 499 kts 55°
2026-05-05 15:14 -15.40629 41.53102 38978 ft 499 kts 55°
2026-05-05 15:15 -15.36695 41.59042 38970 ft 499 kts 55°
2026-05-05 15:15 -15.32766 41.64969 38966 ft 498 kts 55°
2026-05-05 15:16 -15.28832 41.70900 38967 ft 498 kts 55°
2026-05-05 15:16 -15.24902 41.76819 38970 ft 498 kts 55°
2026-05-05 15:17 -15.20968 41.82742 38982 ft 498 kts 55°
2026-05-05 15:17 -15.17037 41.88654 38967 ft 498 kts 55°
2026-05-05 15:18 -15.13130 41.94524 38973 ft 498 kts 55°
2026-05-05 15:18 -15.09198 42.00430 38975 ft 498 kts 55°
2026-05-05 15:19 -15.05254 42.06348 38965 ft 498 kts 55°
2026-05-05 15:19 -15.01319 42.12248 38964 ft 498 kts 55°
2026-05-05 15:20 -14.97384 42.18144 38974 ft 498 kts 55°
2026-05-05 15:20 -14.93436 42.24056 38966 ft 498 kts 55°
2026-05-05 15:21 -14.89499 42.29949 38979 ft 497 kts 54°
2026-05-05 15:21 -14.85558 42.35840 38967 ft 497 kts 54°
2026-05-05 15:22 -14.81617 42.41726 38974 ft 497 kts 54°
2026-05-05 15:22 -14.77698 42.47577 38967 ft 497 kts 54°
2026-05-05 15:23 -14.73759 42.53453 38976 ft 497 kts 54°
2026-05-05 15:23 -14.69818 42.59329 38972 ft 497 kts 54°
2026-05-05 15:24 -14.65876 42.65203 38968 ft 497 kts 54°
2026-05-05 15:24 -14.61925 42.71086 38961 ft 497 kts 54°
2026-05-05 15:25 -14.57985 42.76952 38972 ft 497 kts 54°
2026-05-05 15:25 -14.54040 42.82815 38967 ft 497 kts 54°
2026-05-05 15:26 -14.50041 42.88577 38963 ft 496 kts 53°
2026-05-05 15:26 -14.45994 42.94350 38964 ft 496 kts 53°
2026-05-05 15:27 -14.41953 43.00126 38970 ft 496 kts 53°
2026-05-05 15:27 -14.37910 43.05912 38970 ft 496 kts 53°
2026-05-05 15:28 -14.33873 43.11688 38966 ft 495 kts 53°
2026-05-05 15:28 -14.29836 43.17462 38971 ft 495 kts 53°
2026-05-05 15:29 -14.25804 43.23223 38962 ft 495 kts 53°
2026-05-05 15:29 -14.21764 43.28994 38976 ft 495 kts 53°
2026-05-05 15:30 -14.17727 43.34756 38969 ft 495 kts 53°
2026-05-05 15:30 -14.13717 43.40474 38969 ft 495 kts 53°
2026-05-05 15:31 -14.09675 43.46235 38963 ft 495 kts 53°
2026-05-05 15:31 -14.05642 43.51979 38963 ft 494 kts 53°
2026-05-05 15:32 -14.01605 43.57725 38960 ft 494 kts 53°
2026-05-05 15:32 -13.97567 43.63467 38961 ft 494 kts 53°
2026-05-05 15:33 -13.93531 43.69203 38963 ft 494 kts 53°
2026-05-05 15:33 -13.89497 43.74934 38962 ft 494 kts 53°
2026-05-05 15:34 -13.85454 43.80673 38971 ft 494 kts 53°
2026-05-05 15:34 -13.81413 43.86405 38969 ft 494 kts 53°
2026-05-05 15:35 -13.77401 43.92092 38960 ft 494 kts 53°
2026-05-05 15:35 -13.73359 43.97818 38968 ft 494 kts 53°
2026-05-05 15:36 -13.69300 44.03564 38965 ft 494 kts 53°
2026-05-05 15:36 -13.65271 44.09264 38968 ft 494 kts 53°
2026-05-05 15:37 -13.61228 44.14980 38961 ft 494 kts 53°
2026-05-05 15:37 -13.57186 44.20691 38963 ft 493 kts 53°
2026-05-05 15:38 -13.53137 44.26410 38968 ft 493 kts 53°
2026-05-05 15:38 -13.49093 44.32117 38960 ft 493 kts 53°
2026-05-05 15:39 -13.45074 44.37787 38965 ft 493 kts 53°
2026-05-05 15:39 -13.41031 44.43489 38959 ft 493 kts 52°
2026-05-05 15:40 -13.36979 44.49198 38948 ft 493 kts 52°
2026-05-05 15:40 -13.32936 44.54908 38960 ft 493 kts 53°
2026-05-05 15:41 -13.28902 44.60619 38966 ft 493 kts 53°
2026-05-05 15:41 -13.24872 44.66324 38960 ft 494 kts 53°
2026-05-05 15:42 -13.21513 44.71076 38960 ft 494 kts 53°
2026-05-05 15:42 -13.17471 44.76793 38959 ft 494 kts 53°
2026-05-05 15:43 -13.13429 44.82505 38958 ft 494 kts 53°
2026-05-05 15:43 -13.09389 44.88212 38958 ft 493 kts 53°
2026-05-05 15:44 -13.05352 44.93911 38953 ft 493 kts 53°
2026-05-05 15:44 -13.01335 44.99577 38959 ft 493 kts 53°
2026-05-05 15:45 -12.97300 45.05265 38952 ft 493 kts 53°
2026-05-05 15:45 -12.93256 45.10965 38955 ft 493 kts 53°
2026-05-05 15:46 -12.89212 45.16662 38958 ft 493 kts 53°
2026-05-05 15:46 -12.85169 45.22357 38964 ft 493 kts 53°
2026-05-05 15:47 -12.81168 45.28081 38956 ft 494 kts 55°
2026-05-05 15:47 -12.77555 45.34072 38957 ft 493 kts 58°
2026-05-05 15:48 -12.74051 45.40065 38958 ft 493 kts 58°
2026-05-05 15:48 -12.70521 45.46093 38949 ft 493 kts 58°
2026-05-05 15:49 -12.66986 45.52120 38950 ft 493 kts 58°
2026-05-05 15:49 -12.63441 45.58157 38946 ft 493 kts 58°
2026-05-05 15:50 -12.59905 45.64172 38942 ft 493 kts 58°
2026-05-05 15:50 -12.56368 45.70187 38943 ft 492 kts 58°
2026-05-05 15:51 -12.52834 45.76195 38945 ft 492 kts 58°
2026-05-05 15:51 -12.49299 45.82201 38949 ft 492 kts 58°
2026-05-05 15:52 -12.45762 45.88206 38949 ft 492 kts 58°
2026-05-05 15:52 -12.42222 45.94212 38952 ft 492 kts 58°
2026-05-05 15:53 -12.38709 46.00172 38959 ft 491 kts 58°
2026-05-05 15:53 -12.35177 46.06160 38954 ft 491 kts 58°
2026-05-05 15:54 -12.31417 46.11992 38957 ft 490 kts 52°
2026-05-05 15:54 -12.27076 46.17371 38963 ft 489 kts 46°
2026-05-05 15:55 -12.22374 46.22343 38958 ft 489 kts 44°
2026-05-05 15:55 -12.17626 46.27307 38956 ft 488 kts 44°
2026-05-05 15:56 -12.12883 46.32275 38959 ft 487 kts 44°
2026-05-05 15:56 -12.08144 46.37242 38964 ft 487 kts 44°
2026-05-05 15:57 -12.03410 46.42205 38955 ft 487 kts 44°
2026-05-05 15:57 -11.98671 46.47169 38956 ft 486 kts 44°
2026-05-05 15:58 -11.93953 46.52110 38957 ft 485 kts 44°
2026-05-05 15:58 -11.89268 46.57013 38957 ft 485 kts 44°
2026-05-05 15:59 -11.84554 46.61944 38958 ft 485 kts 44°
2026-05-05 15:59 -11.79842 46.66869 38957 ft 485 kts 44°
2026-05-05 16:00 -11.75122 46.71801 38957 ft 484 kts 44°
2026-05-05 16:00 -11.70415 46.76718 38960 ft 484 kts 44°
2026-05-05 16:01 -11.65711 46.81628 38958 ft 484 kts 44°
2026-05-05 16:01 -11.61000 46.86543 38957 ft 484 kts 44°
2026-05-05 16:02 -11.56295 46.91450 38957 ft 484 kts 44°
2026-05-05 16:02 -11.51586 46.96357 38957 ft 483 kts 44°
2026-05-05 16:03 -11.46886 47.01255 38959 ft 483 kts 44°
2026-05-05 16:03 -11.42186 47.06148 38960 ft 483 kts 44°
2026-05-05 16:04 -11.37509 47.11015 38963 ft 483 kts 44°
2026-05-05 16:04 -11.32805 47.15909 38963 ft 483 kts 44°
2026-05-05 16:05 -11.28102 47.20804 38956 ft 483 kts 44°
2026-05-05 16:05 -11.23398 47.25691 38956 ft 483 kts 44°
2026-05-05 16:06 -11.18689 47.30581 38960 ft 483 kts 44°
2026-05-05 16:06 -11.13973 47.35475 38960 ft 483 kts 44°
2026-05-05 16:07 -11.09267 47.40358 38959 ft 483 kts 44°
2026-05-05 16:07 -11.04564 47.45238 38959 ft 482 kts 44°
2026-05-05 16:08 -10.99867 47.50113 38956 ft 482 kts 44°
2026-05-05 16:08 -10.95164 47.54991 38957 ft 482 kts 44°
2026-05-05 16:09 -10.90482 47.59835 38963 ft 482 kts 44°
2026-05-05 16:09 -10.85770 47.64706 38960 ft 482 kts 44°
2026-05-05 16:10 -10.81068 47.69570 38957 ft 482 kts 44°
2026-05-05 16:10 -10.76363 47.74438 38960 ft 482 kts 44°
2026-05-05 16:11 -10.71655 47.79308 38951 ft 482 kts 44°
2026-05-05 16:12 -10.62273 47.89002 38957 ft 481 kts 44°
2026-05-05 16:13 -10.50557 48.01101 38949 ft 479 kts 44°
2026-05-05 16:13 -10.45872 48.05935 38952 ft 479 kts 44°
2026-05-05 16:14 -10.36508 48.15588 38954 ft 479 kts 44°
2026-05-05 16:15 -10.27185 48.25194 38953 ft 478 kts 44°
2026-05-05 16:16 -10.17823 48.34833 38951 ft 478 kts 44°
2026-05-05 16:17 -10.10821 48.42036 38949 ft 476 kts 44°
2026-05-05 16:18 -10.03871 48.49187 38951 ft 476 kts 44°
2026-05-05 16:19 -9.97248 48.56698 38947 ft 476 kts 51°
2026-05-05 16:19 -9.91111 48.64649 38948 ft 476 kts 51°
2026-05-05 16:20 -9.82942 48.75240 38949 ft 476 kts 51°
2026-05-05 16:22 -9.72713 48.88479 38949 ft 476 kts 51°
2026-05-05 16:23 -9.64551 48.99027 38948 ft 476 kts 51°
2026-05-05 16:23 -9.58417 49.06954 38948 ft 476 kts 51°
2026-05-05 16:24 -9.54320 49.12247 38956 ft 476 kts 51°
2026-05-05 16:25 -9.48178 49.20173 38950 ft 476 kts 51°
2026-05-05 16:25 -9.42039 49.28088 38947 ft 476 kts 51°
2026-05-05 16:26 -9.33837 49.38657 38948 ft 476 kts 51°
2026-05-05 16:27 -9.29768 49.43898 38945 ft 476 kts 51°
2026-05-05 16:27 -9.25669 49.49175 38944 ft 476 kts 51°
2026-05-05 16:28 -9.21573 49.54444 38945 ft 476 kts 51°
2026-05-05 16:28 -9.17476 49.59712 38945 ft 475 kts 51°
2026-05-05 16:29 -9.13379 49.64981 38943 ft 475 kts 51°
2026-05-05 16:29 -9.09290 49.70236 38941 ft 475 kts 51°
2026-05-05 16:30 -9.05196 49.75495 38943 ft 475 kts 51°
2026-05-05 16:30 -9.01104 49.80750 38938 ft 475 kts 51°
2026-05-05 16:31 -8.97010 49.86005 38940 ft 475 kts 51°
2026-05-05 16:31 -8.93615 49.90360 38940 ft 472 kts 52°
2026-05-05 16:32 -8.88884 49.96429 38939 ft 471 kts 51°
2026-05-05 16:32 -8.85484 50.00788 38937 ft 471 kts 51°
2026-05-05 16:33 -8.81414 50.06004 38934 ft 472 kts 51°
2026-05-05 16:33 -8.77374 50.11180 38938 ft 472 kts 51°
2026-05-05 16:34 -8.73297 50.16400 38941 ft 472 kts 51°
2026-05-05 16:34 -8.69245 50.21587 38927 ft 467 kts 51°
2026-05-05 16:35 -8.65216 50.26743 38936 ft 466 kts 51°
2026-05-05 16:35 -8.61187 50.31896 38936 ft 466 kts 51°
2026-05-05 16:36 -8.57158 50.37047 38932 ft 466 kts 51°
2026-05-05 16:36 -8.53128 50.42197 38930 ft 467 kts 51°
2026-05-05 16:37 -8.49095 50.47349 38938 ft 467 kts 51°
2026-05-05 16:37 -8.45060 50.52503 38934 ft 467 kts 51°
2026-05-05 16:38 -8.41043 50.57631 38936 ft 467 kts 51°
2026-05-05 16:38 -8.37008 50.62781 38930 ft 467 kts 51°
2026-05-05 16:39 -8.32967 50.67936 38929 ft 467 kts 51°
2026-05-05 16:39 -8.28926 50.73088 38938 ft 467 kts 51°
2026-05-05 16:40 -8.24884 50.78241 38930 ft 467 kts 51°
2026-05-05 16:40 -8.20850 50.83382 38936 ft 465 kts 52°
2026-05-05 16:41 -8.16850 50.88477 38935 ft 463 kts 52°
2026-05-05 16:41 -8.12846 50.93575 38933 ft 462 kts 52°
2026-05-05 16:42 -8.08868 50.98639 38932 ft 463 kts 52°
2026-05-05 16:42 -8.04863 51.03735 38934 ft 462 kts 52°
2026-05-05 16:43 -8.00854 51.08835 38927 ft 462 kts 52°
2026-05-05 16:43 -7.96849 51.13928 38928 ft 462 kts 52°
2026-05-05 16:44 -7.92884 51.18967 38930 ft 460 kts 52°
2026-05-05 16:44 -7.88899 51.24032 38930 ft 461 kts 52°
2026-05-05 16:45 -7.84915 51.29092 38930 ft 461 kts 52°
2026-05-05 16:45 -7.80930 51.34152 38931 ft 460 kts 52°
2026-05-05 16:46 -7.76940 51.39218 38930 ft 460 kts 52°
2026-05-05 16:46 -7.72948 51.44282 38931 ft 460 kts 52°
2026-05-05 16:47 -7.68960 51.49342 38923 ft 460 kts 51°
2026-05-05 16:47 -7.64967 51.54405 38922 ft 461 kts 51°
2026-05-05 16:48 -7.61001 51.59432 38934 ft 461 kts 52°
2026-05-05 16:48 -7.57010 51.64491 38930 ft 461 kts 51°
2026-05-05 16:49 -7.53019 51.69546 38928 ft 461 kts 52°
2026-05-05 16:49 -7.49027 51.74601 38927 ft 460 kts 52°
2026-05-05 16:50 -7.45033 51.79658 38926 ft 460 kts 51°
2026-05-05 16:50 -7.41038 51.84716 38927 ft 460 kts 51°
2026-05-05 16:51 -7.37068 51.89737 38921 ft 460 kts 51°
2026-05-05 16:51 -7.33077 51.94785 38921 ft 461 kts 51°
2026-05-05 16:52 -7.29077 51.99842 38924 ft 461 kts 51°
2026-05-05 16:52 -7.25080 52.04894 38928 ft 461 kts 51°
2026-05-05 16:53 -7.21080 52.09949 38919 ft 462 kts 51°
2026-05-05 16:53 -7.17069 52.15013 38921 ft 462 kts 51°
2026-05-05 16:54 -7.13056 52.20081 38929 ft 462 kts 51°
2026-05-05 16:54 -7.09039 52.25153 38924 ft 462 kts 51°
2026-05-05 16:55 -7.05021 52.30222 38917 ft 462 kts 51°
2026-05-05 16:55 -7.01025 52.35263 38913 ft 464 kts 51°
2026-05-05 16:56 -6.97000 52.40342 38918 ft 464 kts 51°
2026-05-05 16:56 -6.92980 52.45411 38916 ft 464 kts 51°
2026-05-05 16:57 -6.88945 52.50493 38915 ft 465 kts 52°
2026-05-05 16:57 -6.84907 52.55581 38921 ft 464 kts 52°
2026-05-05 16:58 -6.80873 52.60665 38919 ft 464 kts 52°
2026-05-05 16:58 -6.76837 52.65748 38917 ft 464 kts 52°
2026-05-05 16:59 -6.72822 52.70804 38915 ft 464 kts 52°
2026-05-05 16:59 -6.68764 52.75913 38914 ft 465 kts 52°
2026-05-05 17:00 -6.64747 52.80965 38918 ft 465 kts 52°
2026-05-05 17:00 -6.60713 52.86041 38920 ft 464 kts 52°
2026-05-05 17:01 -6.56674 52.91123 38918 ft 464 kts 52°
2026-05-05 17:01 -6.52629 52.96210 38914 ft 464 kts 52°
2026-05-05 17:02 -6.48591 53.01289 38912 ft 464 kts 52°
2026-05-05 17:02 -6.44552 53.06369 38915 ft 464 kts 52°
2026-05-05 17:03 -6.40515 53.11441 38910 ft 464 kts 52°
2026-05-05 17:03 -6.36471 53.16463 38912 ft 465 kts 52°
2026-05-05 17:04 -6.32393 53.21521 38913 ft 466 kts 52°
2026-05-05 17:04 -6.28313 53.26584 38914 ft 465 kts 52°
2026-05-05 17:05 -6.24238 53.31644 38916 ft 465 kts 52°
2026-05-05 17:05 -6.20162 53.36708 38916 ft 465 kts 52°
2026-05-05 17:06 -6.16081 53.41777 38914 ft 465 kts 52°
2026-05-05 17:06 -6.12007 53.46835 38912 ft 465 kts 52°
2026-05-05 17:07 -6.07922 53.51908 38911 ft 467 kts 52°
2026-05-05 17:07 -6.03835 53.56979 38912 ft 467 kts 52°
2026-05-05 17:08 -5.99767 53.62025 38913 ft 467 kts 52°
2026-05-05 17:08 -5.95672 53.67104 38915 ft 467 kts 52°
2026-05-05 17:09 -5.91583 53.72173 38913 ft 466 kts 52°
2026-05-05 17:09 -5.87487 53.77251 38913 ft 467 kts 52°
2026-05-05 17:10 -5.83393 53.82324 38915 ft 467 kts 52°
2026-05-05 17:10 -5.79293 53.87406 38914 ft 467 kts 52°
2026-05-05 17:11 -5.75226 53.92444 38912 ft 467 kts 52°
2026-05-05 17:11 -5.71124 53.97523 38914 ft 467 kts 52°
2026-05-05 17:12 -5.67028 54.02593 38918 ft 467 kts 52°
2026-05-05 17:12 -5.62935 54.07658 38917 ft 467 kts 52°
2026-05-05 17:13 -5.58840 54.12727 38909 ft 466 kts 52°
2026-05-05 17:13 -5.54746 54.17793 38908 ft 467 kts 52°
2026-05-05 17:14 -5.50650 54.22860 38909 ft 467 kts 52°
2026-05-05 17:14 -5.46544 54.27937 38914 ft 468 kts 52°
2026-05-05 17:15 -5.42435 54.33017 38915 ft 468 kts 52°
2026-05-05 17:15 -5.38356 54.38058 38917 ft 467 kts 52°
2026-05-05 17:16 -5.34254 54.43128 38913 ft 467 kts 52°
2026-05-05 17:16 -5.30146 54.48202 38913 ft 467 kts 52°
2026-05-05 17:17 -5.26043 54.53269 38914 ft 468 kts 52°
2026-05-05 17:17 -5.21930 54.58349 38914 ft 468 kts 52°
2026-05-05 17:18 -5.17812 54.63433 38913 ft 468 kts 52°
2026-05-05 17:18 -5.13698 54.68511 38912 ft 468 kts 52°
2026-05-05 17:19 -5.10274 54.72736 38912 ft 468 kts 52°
2026-05-05 17:19 -5.06158 54.77813 38914 ft 469 kts 52°
2026-05-05 17:20 -5.02039 54.82894 38911 ft 469 kts 52°
2026-05-05 17:20 -4.97921 54.87973 38916 ft 469 kts 52°
2026-05-05 17:21 -4.93796 54.93061 38915 ft 469 kts 52°
2026-05-05 17:22 -4.87609 55.00686 38911 ft 469 kts 52°
2026-05-05 17:22 -4.83485 55.05768 38910 ft 469 kts 52°
2026-05-05 17:23 -4.79359 55.10851 38902 ft 469 kts 52°
2026-05-05 17:23 -4.75264 55.15895 38903 ft 469 kts 52°
2026-05-05 17:24 -4.71140 55.20975 38897 ft 469 kts 52°
2026-05-05 17:24 -4.67013 55.26055 38898 ft 468 kts 52°
2026-05-05 17:25 -4.62901 55.31118 38888 ft 468 kts 52°
2026-05-05 17:25 -4.58778 55.36194 38900 ft 468 kts 52°
2026-05-05 17:26 -4.54659 55.41265 38901 ft 468 kts 52°
2026-05-05 17:26 -4.50543 55.46330 38900 ft 468 kts 52°
2026-05-05 17:27 -4.46429 55.51394 38897 ft 468 kts 52°
2026-05-05 17:27 -4.42309 55.56464 38894 ft 468 kts 52°
2026-05-05 17:28 -4.38194 55.61528 38897 ft 469 kts 52°
2026-05-05 17:28 -4.33995 55.66546 38894 ft 469 kts 49°
2026-05-05 17:29 -4.29389 55.71135 38892 ft 471 kts 43°
2026-05-05 17:29 -4.24291 55.75264 38896 ft 472 kts 37°
2026-05-05 17:30 -4.18927 55.79078 38901 ft 472 kts 37°
2026-05-05 17:30 -4.13552 55.82883 38906 ft 473 kts 37°
2026-05-05 17:31 -4.08171 55.86696 38905 ft 473 kts 37°
2026-05-05 17:31 -4.02799 55.90504 38911 ft 473 kts 37°
2026-05-05 17:32 -3.97421 55.94317 38911 ft 473 kts 37°
2026-05-05 17:32 -3.92051 55.98125 38911 ft 473 kts 37°
2026-05-05 17:33 -3.86666 56.01943 38909 ft 473 kts 37°
2026-05-05 17:33 -3.81329 56.05726 38909 ft 473 kts 37°
2026-05-05 17:34 -3.75955 56.09538 38912 ft 472 kts 37°
2026-05-05 17:34 -3.70594 56.13336 38911 ft 472 kts 37°
2026-05-05 17:35 -3.65230 56.17134 38911 ft 472 kts 37°
2026-05-05 17:35 -3.59867 56.20933 38911 ft 472 kts 37°
2026-05-05 17:36 -3.54506 56.24730 38909 ft 472 kts 37°
2026-05-05 17:36 -3.49140 56.28530 38911 ft 472 kts 37°
2026-05-05 17:37 -3.43778 56.32330 38909 ft 472 kts 36°
2026-05-05 17:37 -3.38441 56.36108 38911 ft 472 kts 36°
2026-05-05 17:38 -3.33074 56.39906 38911 ft 472 kts 36°
2026-05-05 17:38 -3.27701 56.43708 38908 ft 472 kts 36°
2026-05-05 17:39 -3.22333 56.47507 38906 ft 472 kts 36°
2026-05-05 17:39 -3.16967 56.51304 38906 ft 472 kts 36°
2026-05-05 17:40 -3.11604 56.55097 38906 ft 471 kts 36°
2026-05-05 17:40 -3.06259 56.58879 38904 ft 471 kts 36°
2026-05-05 17:41 -3.00925 56.62653 38908 ft 471 kts 36°
2026-05-05 17:41 -2.95570 56.66441 38908 ft 471 kts 36°
2026-05-05 17:42 -2.90211 56.70230 38906 ft 471 kts 36°
2026-05-05 17:42 -2.84847 56.74023 38911 ft 471 kts 36°
2026-05-05 17:43 -2.79490 56.77811 38906 ft 471 kts 36°
2026-05-05 17:43 -2.74129 56.81600 38905 ft 471 kts 36°
2026-05-05 17:44 -2.68772 56.85387 38908 ft 471 kts 36°
2026-05-05 17:44 -2.63409 56.89177 38905 ft 472 kts 36°
2026-05-05 17:45 -2.58039 56.92973 38904 ft 472 kts 36°
2026-05-05 17:45 -2.52711 56.96736 38906 ft 471 kts 36°
2026-05-05 17:46 -2.47358 57.00518 38905 ft 470 kts 36°
2026-05-05 17:46 -2.42013 57.04296 38904 ft 470 kts 36°
2026-05-05 17:47 -2.36665 57.08074 38906 ft 470 kts 36°
2026-05-05 17:47 -2.31313 57.11855 38908 ft 470 kts 36°
2026-05-05 17:48 -2.25998 57.15608 38907 ft 470 kts 36°
2026-05-05 17:48 -2.20648 57.19389 38903 ft 471 kts 36°
2026-05-05 17:49 -2.15285 57.23176 38904 ft 471 kts 36°
2026-05-05 17:49 -2.09928 57.26958 38906 ft 471 kts 36°
2026-05-05 17:50 -2.04569 57.30742 38904 ft 471 kts 36°
2026-05-05 17:50 -1.99204 57.34530 38905 ft 471 kts 36°
2026-05-05 17:51 -1.93879 57.38289 38905 ft 471 kts 36°
2026-05-05 17:51 -1.88514 57.42075 38907 ft 471 kts 36°
2026-05-05 17:52 -1.83159 57.45857 38909 ft 471 kts 36°
2026-05-05 17:52 -1.77802 57.49640 38908 ft 471 kts 36°
2026-05-05 17:53 -1.72447 57.53421 38905 ft 471 kts 36°
2026-05-05 17:53 -1.67091 57.57204 38904 ft 471 kts 36°
2026-05-05 17:54 -1.61761 57.60970 38909 ft 471 kts 36°
2026-05-05 17:54 -1.56413 57.64740 38908 ft 468 kts 37°
2026-05-05 17:55 -1.51082 57.68493 38901 ft 469 kts 37°
2026-05-05 17:55 -1.45733 57.72264 38908 ft 470 kts 37°
2026-05-05 17:56 -1.40425 57.76010 38911 ft 470 kts 37°
2026-05-05 17:56 -1.35084 57.79779 38912 ft 470 kts 37°
2026-05-05 17:57 -1.29738 57.83552 38908 ft 470 kts 37°
2026-05-05 17:57 -1.24400 57.87316 38912 ft 468 kts 37°
2026-05-05 17:58 -1.19072 57.91078 38913 ft 468 kts 37°
2026-05-05 17:58 -1.13751 57.94836 38912 ft 468 kts 37°
2026-05-05 17:59 -1.08463 57.98572 38907 ft 469 kts 37°
2026-05-05 17:59 -1.03134 58.02335 38907 ft 469 kts 37°
2026-05-05 18:00 -0.97808 58.06094 38917 ft 469 kts 37°
2026-05-05 18:00 -0.92489 58.09846 38912 ft 467 kts 37°
2026-05-05 18:01 -0.87183 58.13590 38913 ft 466 kts 37°
2026-05-05 18:01 -0.81880 58.17333 38912 ft 466 kts 37°
2026-05-05 18:02 -0.76578 58.21073 38912 ft 466 kts 37°
2026-05-05 18:02 -0.71276 58.24814 38907 ft 466 kts 37°
2026-05-05 18:03 -0.65976 58.28552 38909 ft 466 kts 37°
2026-05-05 18:03 -0.60675 58.32295 38909 ft 466 kts 37°
2026-05-05 18:04 -0.55379 58.36029 38910 ft 466 kts 37°
2026-05-05 18:04 -0.50083 58.39764 38910 ft 466 kts 37°
2026-05-05 18:05 -0.44819 58.43477 38912 ft 466 kts 37°
2026-05-05 18:05 -0.39522 58.47213 38912 ft 466 kts 37°
2026-05-05 18:06 -0.34226 58.50949 38909 ft 465 kts 37°
2026-05-05 18:06 -0.28932 58.54685 38911 ft 466 kts 37°
2026-05-05 18:07 -0.23630 58.58424 38910 ft 466 kts 37°
2026-05-05 18:07 -0.18324 58.62165 38910 ft 466 kts 37°
2026-05-05 18:08 -0.13919 58.65272 38910 ft 466 kts 37°
2026-05-05 18:08 -0.07754 58.69621 38912 ft 466 kts 37°
2026-05-05 18:09 -0.02448 58.73363 38920 ft 466 kts 37°
2026-05-05 18:09 0.01996 58.76496 38913 ft 466 kts 37°
2026-05-05 18:10 0.07309 58.80241 38913 ft 467 kts 37°
2026-05-05 18:10 0.12588 58.83960 38913 ft 467 kts 37°
2026-05-05 18:11 0.17901 58.87706 38913 ft 467 kts 37°
2026-05-05 18:11 0.23219 58.91456 38913 ft 467 kts 37°
2026-05-05 18:12 0.28540 58.95209 38913 ft 467 kts 37°
2026-05-05 18:12 0.33861 58.98962 38913 ft 467 kts 37°
2026-05-05 18:13 0.39176 59.02711 38915 ft 467 kts 37°
2026-05-05 18:13 0.44493 59.06462 38910 ft 467 kts 37°
2026-05-05 18:14 0.49773 59.10186 38914 ft 467 kts 37°
2026-05-05 18:14 0.55095 59.13941 38913 ft 468 kts 37°
2026-05-05 18:15 0.60415 59.17693 38910 ft 468 kts 37°
2026-05-05 18:15 0.65730 59.21442 38915 ft 467 kts 37°
2026-05-05 18:16 0.71052 59.25198 38913 ft 468 kts 37°
2026-05-05 18:16 0.76373 59.28951 38918 ft 468 kts 37°
2026-05-05 18:17 0.81696 59.32707 38915 ft 468 kts 37°
2026-05-05 18:17 0.87020 59.36463 38913 ft 468 kts 37°
2026-05-05 18:18 0.92311 59.40196 38911 ft 468 kts 37°
2026-05-05 18:18 0.97647 59.43961 38911 ft 468 kts 37°
2026-05-05 18:19 1.02977 59.47723 38912 ft 469 kts 37°
2026-05-05 18:19 1.08306 59.51483 38911 ft 469 kts 37°
2026-05-05 18:20 1.13637 59.55244 38910 ft 469 kts 37°
2026-05-05 18:20 1.18966 59.59006 38912 ft 469 kts 37°
2026-05-05 18:21 1.24261 59.62741 38912 ft 469 kts 37°
2026-05-05 18:21 1.29595 59.66507 38911 ft 469 kts 37°
2026-05-05 18:22 1.34921 59.70269 38911 ft 466 kts 36°
2026-05-05 18:22 1.40214 59.74005 38907 ft 465 kts 36°
2026-05-05 18:23 1.45495 59.77733 38911 ft 465 kts 36°
2026-05-05 18:23 1.50773 59.81460 38910 ft 465 kts 36°
2026-05-05 18:24 1.56061 59.85194 38908 ft 465 kts 36°
2026-05-05 18:24 1.61349 59.88930 38911 ft 465 kts 36°
2026-05-05 18:25 1.66646 59.92672 38914 ft 466 kts 36°
2026-05-05 18:25 1.71933 59.96413 38911 ft 465 kts 36°
2026-05-05 18:26 1.77218 60.00147 38913 ft 464 kts 36°
2026-05-05 18:26 1.82445 60.03880 38912 ft 465 kts 37°
2026-05-05 18:27 1.87701 60.07654 38909 ft 464 kts 37°
2026-05-05 18:27 1.92955 60.11429 38909 ft 464 kts 37°
2026-05-05 18:28 2.00827 60.17085 38911 ft 464 kts 37°
2026-05-05 18:28 2.06083 60.20861 38906 ft 464 kts 37°
2026-05-05 18:29 2.11319 60.24624 38906 ft 464 kts 37°
2026-05-05 18:29 2.16571 60.28399 38905 ft 464 kts 37°
2026-05-05 18:30 2.21821 60.32172 38906 ft 464 kts 37°
2026-05-05 18:30 2.27043 60.35926 38910 ft 464 kts 37°
2026-05-05 18:31 2.32292 60.39700 38906 ft 464 kts 37°
2026-05-05 18:31 2.37546 60.43476 38909 ft 465 kts 37°
2026-05-05 18:32 2.42804 60.47257 38906 ft 465 kts 37°
2026-05-05 18:32 2.48061 60.51038 38906 ft 465 kts 37°
2026-05-05 18:33 2.53316 60.54817 38907 ft 465 kts 37°
2026-05-05 18:33 2.58573 60.58598 38903 ft 465 kts 37°
2026-05-05 18:34 2.63825 60.62375 38909 ft 465 kts 37°
2026-05-05 18:34 2.69050 60.66133 38902 ft 465 kts 37°
2026-05-05 18:35 2.74320 60.69924 38905 ft 466 kts 37°
2026-05-05 18:35 2.79588 60.73716 38910 ft 466 kts 37°
2026-05-05 18:36 2.84859 60.77509 38906 ft 466 kts 37°
2026-05-05 18:36 2.90125 60.81299 38909 ft 466 kts 37°
2026-05-05 18:37 2.95395 60.85092 38903 ft 466 kts 37°
2026-05-05 18:37 3.00617 60.88852 38903 ft 466 kts 37°
2026-05-05 18:38 3.05879 60.92641 38907 ft 465 kts 37°
2026-05-05 18:38 3.11133 60.96424 38904 ft 465 kts 37°
2026-05-05 18:39 3.16385 61.00206 38907 ft 465 kts 37°
2026-05-05 18:39 3.21635 61.03987 38908 ft 465 kts 37°
2026-05-05 18:40 3.26888 61.07768 38909 ft 465 kts 37°
2026-05-05 18:40 3.32136 61.11551 38908 ft 465 kts 37°
2026-05-05 18:41 3.37381 61.15334 38905 ft 464 kts 37°
2026-05-05 18:41 3.42619 61.19108 38910 ft 463 kts 37°
2026-05-05 18:42 3.47854 61.22879 38907 ft 463 kts 37°
2026-05-05 18:42 3.53087 61.26651 38907 ft 463 kts 37°
2026-05-05 18:43 3.58285 61.30399 38911 ft 463 kts 37°
2026-05-05 18:43 3.63521 61.34173 38907 ft 463 kts 37°
2026-05-05 18:44 3.68742 61.37935 38905 ft 462 kts 37°
2026-05-05 18:44 3.73960 61.41701 38904 ft 461 kts 37°
2026-05-05 18:45 3.79176 61.45465 38908 ft 461 kts 37°
2026-05-05 18:45 3.84385 61.49224 38904 ft 461 kts 37°
2026-05-05 18:46 3.89598 61.52985 38906 ft 461 kts 37°
2026-05-05 18:46 3.94811 61.56748 38907 ft 461 kts 37°
2026-05-05 18:47 4.00019 61.60508 38907 ft 461 kts 37°
2026-05-05 18:47 4.05191 61.64247 38909 ft 462 kts 37°
2026-05-05 18:48 4.10423 61.68026 38903 ft 463 kts 37°
2026-05-05 18:48 4.15658 61.71805 38904 ft 463 kts 37°
2026-05-05 18:49 4.20887 61.75583 38908 ft 463 kts 37°
2026-05-05 18:49 4.26112 61.79362 38911 ft 463 kts 37°
2026-05-05 18:50 4.31342 61.83146 38910 ft 463 kts 37°
2026-05-05 18:50 4.36566 61.86939 38904 ft 463 kts 37°
2026-05-05 18:51 4.41746 61.90797 38905 ft 464 kts 38°
2026-05-05 18:51 4.46893 61.94640 38905 ft 464 kts 38°
2026-05-05 18:52 4.52075 61.98509 38909 ft 464 kts 38°
2026-05-05 18:52 4.57254 62.02374 38911 ft 464 kts 38°
2026-05-05 18:53 4.62434 62.06242 38908 ft 464 kts 38°
2026-05-05 18:53 4.67615 62.10110 38907 ft 464 kts 38°
2026-05-05 18:54 4.72803 62.13985 38904 ft 464 kts 38°
2026-05-05 18:54 4.77998 62.17866 38906 ft 465 kts 37°
2026-05-05 18:55 4.83167 62.21727 38904 ft 465 kts 38°
2026-05-05 18:55 4.88362 62.25611 38907 ft 465 kts 38°
2026-05-05 18:56 4.92664 62.28829 38902 ft 464 kts 38°
2026-05-05 18:56 4.97853 62.32711 38902 ft 464 kts 38°
2026-05-05 18:57 5.03069 62.36538 38903 ft 464 kts 36°
2026-05-05 18:57 5.08372 62.40265 38904 ft 465 kts 36°
2026-05-05 18:58 5.13670 62.43996 38901 ft 465 kts 36°
2026-05-05 18:58 5.18973 62.47743 38902 ft 465 kts 36°
2026-05-05 18:59 5.24271 62.51494 38902 ft 465 kts 36°
2026-05-05 18:59 5.29527 62.55219 38902 ft 465 kts 36°
2026-05-05 19:00 5.34817 62.58968 38904 ft 464 kts 36°
2026-05-05 19:00 5.40100 62.62714 38901 ft 464 kts 36°
2026-05-05 19:01 5.45386 62.66464 38906 ft 465 kts 36°
2026-05-05 19:01 5.50674 62.70215 38903 ft 465 kts 36°
2026-05-05 19:02 5.55965 62.73969 38902 ft 465 kts 36°
2026-05-05 19:02 5.61227 62.77703 38903 ft 465 kts 36°
2026-05-05 19:03 5.66517 62.81458 38898 ft 465 kts 36°
2026-05-05 19:03 5.71807 62.85214 38898 ft 465 kts 36°
2026-05-05 19:04 5.77084 62.88962 38893 ft 464 kts 36°
2026-05-05 19:04 5.82370 62.92715 38895 ft 465 kts 36°
2026-05-05 19:05 5.87646 62.96464 38896 ft 465 kts 36°
2026-05-05 19:05 5.92930 63.00220 38894 ft 465 kts 36°
2026-05-05 19:06 5.98183 63.03954 38899 ft 465 kts 36°
2026-05-05 19:06 6.03469 63.07713 38900 ft 465 kts 36°
2026-05-05 19:07 6.08750 63.11470 38897 ft 465 kts 36°
2026-05-05 19:07 6.14026 63.15224 38896 ft 465 kts 36°
2026-05-05 19:08 6.19289 63.18968 38899 ft 466 kts 36°
2026-05-05 19:08 6.24585 63.22737 38897 ft 466 kts 36°
2026-05-05 19:09 6.29884 63.26510 38899 ft 466 kts 36°
2026-05-05 19:09 6.35181 63.30282 38899 ft 466 kts 36°
2026-05-05 19:10 6.40475 63.34052 38894 ft 466 kts 36°
2026-05-05 19:10 6.45770 63.37826 38894 ft 466 kts 36°
2026-05-05 19:11 6.51078 63.41609 38889 ft 468 kts 36°
2026-05-05 19:11 6.56400 63.45403 38894 ft 468 kts 36°
2026-05-05 19:12 6.61677 63.49167 38892 ft 468 kts 36°
2026-05-05 19:12 6.66991 63.52958 38894 ft 468 kts 36°
2026-05-05 19:13 6.72298 63.56746 38893 ft 468 kts 36°
2026-05-05 19:13 6.77607 63.60537 38891 ft 468 kts 36°
2026-05-05 19:14 6.82923 63.64336 38886 ft 468 kts 36°
2026-05-05 19:14 6.88238 63.68137 38890 ft 469 kts 36°
2026-05-05 19:15 6.93562 63.71940 38891 ft 469 kts 36°
2026-05-05 19:15 6.98899 63.75741 38891 ft 469 kts 36°
2026-05-05 19:16 7.04227 63.79541 38889 ft 468 kts 36°
2026-05-05 19:16 7.09544 63.83340 38886 ft 468 kts 36°
2026-05-05 19:17 7.14862 63.87144 38886 ft 469 kts 36°
2026-05-05 19:17 7.20177 63.90947 38884 ft 469 kts 36°
2026-05-05 19:18 7.25494 63.94752 38885 ft 469 kts 36°
2026-05-05 19:18 7.30808 63.98557 38886 ft 468 kts 36°
2026-05-05 19:19 7.36124 64.02363 38883 ft 468 kts 36°
2026-05-05 19:19 7.41410 64.06148 38883 ft 468 kts 36°
2026-05-05 19:20 7.46719 64.09951 38884 ft 467 kts 37°
2026-05-05 19:20 7.52023 64.13754 38879 ft 467 kts 36°
2026-05-05 19:21 7.57340 64.17572 38882 ft 469 kts 36°
2026-05-05 19:21 7.62666 64.21389 38883 ft 469 kts 36°
2026-05-05 19:22 7.67989 64.25207 38884 ft 469 kts 36°
2026-05-05 19:22 7.73312 64.29027 38885 ft 469 kts 36°
2026-05-05 19:23 7.78634 64.32847 38882 ft 469 kts 36°
2026-05-05 19:23 7.83955 64.36668 38884 ft 469 kts 36°
2026-05-05 19:24 7.89229 64.40457 38882 ft 469 kts 36°
2026-05-05 19:24 7.94563 64.44293 38876 ft 470 kts 36°
2026-05-05 19:25 7.99905 64.48131 38881 ft 471 kts 36°
2026-05-05 19:25 8.05245 64.51970 38880 ft 471 kts 36°
2026-05-05 19:26 8.10577 64.55805 38881 ft 471 kts 36°
2026-05-05 19:26 8.15915 64.59646 38877 ft 471 kts 36°
2026-05-05 19:27 8.21256 64.63490 38881 ft 471 kts 36°
2026-05-05 19:27 8.26557 64.67309 38877 ft 471 kts 36°
2026-05-05 19:28 8.31901 64.71157 38880 ft 471 kts 36°
2026-05-05 19:28 8.37246 64.75007 38876 ft 471 kts 36°
2026-05-05 19:29 8.42588 64.78857 38876 ft 471 kts 36°
2026-05-05 19:29 8.47931 64.82710 38876 ft 471 kts 36°
2026-05-05 19:30 8.53274 64.86563 38879 ft 471 kts 36°
2026-05-05 19:30 8.58613 64.90415 38885 ft 471 kts 36°
2026-05-05 19:31 8.63957 64.94276 38876 ft 471 kts 35°
2026-05-05 19:31 8.69299 64.98131 38881 ft 471 kts 36°
2026-05-05 19:32 8.74648 65.01991 38878 ft 472 kts 36°
2026-05-05 19:32 8.79992 65.05854 38879 ft 472 kts 36°
2026-05-05 19:33 8.85339 65.09720 38876 ft 472 kts 36°
2026-05-05 19:33 8.90648 65.13559 38876 ft 472 kts 36°
2026-05-05 19:34 8.96000 65.17428 38865 ft 474 kts 36°
2026-05-05 19:35 9.04119 65.23305 38875 ft 479 kts 36°
2026-05-05 19:35 9.09546 65.27236 38872 ft 479 kts 36°
2026-05-05 19:36 9.14967 65.31167 38875 ft 479 kts 36°
2026-05-05 19:36 9.20371 65.35085 38876 ft 477 kts 36°
2026-05-05 19:37 9.25774 65.38999 38872 ft 477 kts 36°
2026-05-05 19:37 9.31168 65.42911 38870 ft 477 kts 36°
2026-05-05 19:38 9.36541 65.46811 38866 ft 478 kts 36°
2026-05-05 19:38 9.41942 65.50734 38871 ft 478 kts 36°
2026-05-05 19:39 9.47346 65.54664 38871 ft 478 kts 36°
2026-05-05 19:39 9.52756 65.58593 38871 ft 478 kts 36°
2026-05-05 19:40 9.58164 65.62506 38873 ft 477 kts 36°
2026-05-05 19:40 9.63564 65.66421 38875 ft 476 kts 36°
2026-05-05 19:41 9.68943 65.70327 38870 ft 475 kts 36°
2026-05-05 19:41 9.74310 65.74230 38872 ft 474 kts 36°
2026-05-05 19:42 9.78771 65.77474 38870 ft 474 kts 36°
2026-05-05 19:42 9.84999 65.82007 38872 ft 474 kts 36°
2026-05-05 19:43 9.89503 65.85285 38876 ft 474 kts 36°
2026-05-05 19:43 9.94826 65.89163 38872 ft 474 kts 36°
2026-05-05 19:44 10.00182 65.93064 38872 ft 474 kts 36°
2026-05-05 19:44 10.05557 65.96979 38871 ft 475 kts 36°
2026-05-05 19:45 10.10931 66.00898 38867 ft 475 kts 36°
2026-05-05 19:45 10.16306 66.04821 38872 ft 475 kts 36°
2026-05-05 19:46 10.21675 66.08739 38872 ft 475 kts 36°
2026-05-05 19:46 10.27052 66.12666 38872 ft 476 kts 36°
2026-05-05 19:47 10.32424 66.16589 38872 ft 476 kts 36°
2026-05-05 19:47 10.37805 66.20521 38879 ft 475 kts 36°
2026-05-05 19:48 10.43131 66.24415 38876 ft 474 kts 36°
2026-05-05 19:48 10.48489 66.28335 38872 ft 475 kts 36°
2026-05-05 19:49 10.53855 66.32260 38872 ft 475 kts 36°
2026-05-05 19:49 10.59228 66.36192 38876 ft 475 kts 36°
2026-05-05 19:50 10.64597 66.40124 38869 ft 475 kts 36°
2026-05-05 19:50 10.69961 66.44054 38875 ft 475 kts 36°
2026-05-05 19:51 10.75293 66.47962 38872 ft 475 kts 36°
2026-05-05 19:51 10.80654 66.51893 38872 ft 475 kts 36°
2026-05-05 19:52 10.86021 66.55833 38877 ft 475 kts 36°
2026-05-05 19:52 10.91383 66.59770 38873 ft 475 kts 36°
2026-05-05 19:53 10.96751 66.63713 38872 ft 475 kts 36°
2026-05-05 19:53 11.02115 66.67654 38871 ft 475 kts 36°
2026-05-05 19:54 11.07482 66.71599 38869 ft 475 kts 36°
2026-05-05 19:54 11.12844 66.75543 38869 ft 475 kts 36°
2026-05-05 19:55 11.18164 66.79457 38869 ft 475 kts 36°
2026-05-05 19:55 11.23554 66.83423 38872 ft 475 kts 36°
2026-05-05 19:56 11.28907 66.87365 38877 ft 475 kts 36°
2026-05-05 19:56 11.34228 66.91283 38871 ft 475 kts 36°
2026-05-05 19:57 11.39590 66.95235 38869 ft 476 kts 36°
2026-05-05 19:57 11.44960 66.99197 38866 ft 476 kts 36°
2026-05-05 19:58 11.50325 67.03156 38869 ft 476 kts 36°
2026-05-05 19:58 11.55691 67.07117 38865 ft 476 kts 36°
2026-05-05 19:59 11.61059 67.11082 38869 ft 476 kts 36°
2026-05-05 19:59 11.66426 67.15048 38872 ft 476 kts 36°
2026-05-05 20:00 11.71791 67.19015 38862 ft 476 kts 36°
2026-05-05 20:00 11.77155 67.22983 38867 ft 476 kts 36°
2026-05-05 20:01 11.82518 67.26955 38864 ft 476 kts 36°
2026-05-05 20:02 11.93288 67.34940 38862 ft 476 kts 36°
2026-05-05 20:02 11.98642 67.38928 38864 ft 476 kts 37°
2026-05-05 20:03 12.03978 67.42971 38857 ft 476 kts 37°
2026-05-05 20:03 12.09308 67.47019 38861 ft 476 kts 37°
2026-05-05 20:04 12.14597 67.51037 38863 ft 476 kts 37°
2026-05-05 20:04 12.19907 67.55073 38863 ft 475 kts 37°
2026-05-05 20:05 12.25227 67.59115 38861 ft 476 kts 37°
2026-05-05 20:05 12.30543 67.63158 38859 ft 476 kts 37°
2026-05-05 20:06 12.35861 67.67205 38860 ft 476 kts 37°
2026-05-05 20:06 12.42458 67.72229 38856 ft 476 kts 37°
2026-05-05 20:07 12.73178 67.95671 38860 ft 474 kts 37°
2026-05-05 20:07 13.02524 68.17857 38863 ft 474 kts 36°
2026-05-05 20:08 13.32643 68.40627 38856 ft 475 kts 36°
2026-05-05 20:08 13.62997 68.63647 38855 ft 475 kts 36°
2026-05-05 20:09 13.93916 68.87181 38866 ft 477 kts 37°
2026-05-05 20:09 14.24697 69.10253 38857 ft 479 kts 36°
2026-05-05 20:10 14.55435 69.33001 38860 ft 479 kts 36°
2026-05-05 20:10 14.86447 69.56040 38854 ft 479 kts 36°
2026-05-05 20:11 15.17651 69.79381 38859 ft 479 kts 36°
2026-05-05 20:11 15.48694 70.03121 38850 ft 482 kts 36°
2026-05-05 20:12 15.79643 70.26873 38846 ft 485 kts 36°
2026-05-05 20:12 16.11084 70.51097 38842 ft 486 kts 36°
2026-05-05 20:13 16.42353 70.75296 38845 ft 488 kts 36°
2026-05-05 20:13 16.73557 70.99746 38842 ft 489 kts 36°
2026-05-05 20:14 17.03986 71.23816 38840 ft 488 kts 36°
2026-05-05 20:14 17.34957 71.48437 38845 ft 488 kts 36°
2026-05-05 20:15 17.67186 71.73929 38844 ft 488 kts 36°
2026-05-05 20:15 17.99232 71.99413 38838 ft 488 kts 36°
2026-05-05 20:16 18.31375 72.25100 38845 ft 487 kts 36°
2026-05-05 20:16 18.63270 72.50709 38848 ft 489 kts 36°
2026-05-05 20:17 18.94466 72.75892 38865 ft 489 kts 36°
2026-05-05 20:17 19.10910 72.86283 38851 ft 481 kts 15°
2026-05-05 20:17 19.29959 72.88340 38869 ft 477 kts
2026-05-05 20:18 19.42846 72.88847 38870 ft 473 kts
2026-05-05 20:18 19.49444 72.89128 38871 ft 473 kts
2026-05-05 20:19 19.55981 72.89410 38870 ft 473 kts
2026-05-05 20:19 19.62562 72.89694 38870 ft 473 kts
2026-05-05 20:20 19.69129 72.89977 38870 ft 470 kts
2026-05-05 20:20 19.75667 72.90259 38868 ft 470 kts
2026-05-05 20:21 19.82201 72.90540 38869 ft 469 kts
2026-05-05 20:21 19.88731 72.90821 38868 ft 469 kts
2026-05-05 20:22 19.95261 72.91103 38866 ft 470 kts
2026-05-05 20:22 20.01729 72.91387 38869 ft 467 kts 360°
2026-05-05 20:23 20.08227 72.91666 38865 ft 467 kts 360°
2026-05-05 20:23 20.14724 72.91945 38864 ft 467 kts 360°
2026-05-05 20:24 20.21217 72.92226 38859 ft 467 kts 360°
2026-05-05 20:24 20.27710 72.92507 38859 ft 467 kts 360°
2026-05-05 20:25 20.34205 72.92796 38860 ft 466 kts 359°
2026-05-05 20:25 20.40691 72.93075 38855 ft 466 kts 359°
2026-05-05 20:26 20.47169 72.93355 38853 ft 466 kts 359°
2026-05-05 20:26 20.53609 72.93636 38853 ft 466 kts 359°
2026-05-05 20:27 20.60078 72.93920 38853 ft 466 kts 359°
2026-05-05 20:27 20.66558 72.94211 38858 ft 466 kts 359°
2026-05-05 20:28 20.73042 72.94494 38847 ft 466 kts 359°
2026-05-05 20:28 20.78428 72.94716 38847 ft 466 kts 358°
2026-05-05 20:29 20.84906 72.94942 38850 ft 466 kts 358°
2026-05-05 20:29 20.91385 72.95173 38850 ft 466 kts 358°
2026-05-05 20:30 20.97865 72.95416 38851 ft 467 kts 358°
2026-05-05 20:30 21.04362 72.95655 38848 ft 467 kts 358°
2026-05-05 20:31 21.09273 72.95843 38847 ft 467 kts 359°
2026-05-05 20:31 21.14185 72.96294 38849 ft 470 kts
2026-05-05 20:31 21.31195 73.00999 38847 ft 478 kts 15°
2026-05-05 20:32 21.43447 73.05774 40416 ft 476 kts 17°
2026-05-05 20:32 21.49776 73.08234 37917 ft 484 kts 15°
2026-05-05 20:32 21.56185 73.10732 38619 ft 479 kts 14°
2026-05-05 20:32 21.62647 73.13218 38775 ft 482 kts 14°
2026-05-05 20:33 21.69045 73.15690 38813 ft 482 kts 14°
2026-05-05 20:33 21.81801 73.20637 38812 ft 482 kts 14°
2026-05-05 20:34 21.94699 73.25655 38810 ft 482 kts 14°
2026-05-05 20:34 22.07433 73.30614 38816 ft 482 kts 14°
2026-05-05 20:35 22.20252 73.35619 38817 ft 482 kts 14°
2026-05-05 20:35 22.33255 73.40706 38819 ft 482 kts 14°
2026-05-05 20:36 22.46135 73.45754 38822 ft 482 kts 14°
2026-05-05 20:36 22.58930 73.50786 38827 ft 481 kts 14°
2026-05-05 20:37 22.71778 73.55849 38829 ft 480 kts 14°
2026-05-05 20:37 22.84544 73.60876 38831 ft 480 kts 14°
2026-05-05 20:38 22.97266 73.65892 38849 ft 478 kts 13°
2026-05-05 20:38 23.10014 73.70930 38839 ft 479 kts 13°
2026-05-05 20:39 23.22854 73.76023 38860 ft 479 kts 13°
2026-05-05 20:39 23.26946 73.77651 38850 ft 478 kts 13°
2026-05-05 20:40 23.30078 73.78896 38845 ft 478 kts 13°
2026-05-05 20:40 23.33206 73.80139 38850 ft 478 kts 13°
2026-05-05 20:41 23.36332 73.81383 38855 ft 478 kts 13°
2026-05-05 20:41 23.64018 73.92420 38852 ft 479 kts 13°
2026-05-05 20:42 23.98010 74.06057 38862 ft 480 kts 13°
2026-05-05 20:42 24.32098 74.19748 38868 ft 480 kts 13°
2026-05-05 20:43 24.66670 74.33755 38870 ft 481 kts 13°
2026-05-05 20:43 25.00934 74.47734 38859 ft 482 kts 13°
2026-05-05 20:44 25.35303 74.61843 38859 ft 481 kts 13°
2026-05-05 20:44 25.69272 74.75908 38859 ft 482 kts 13°
2026-05-05 20:45 26.20401 74.97257 38863 ft 482 kts 12°
2026-05-05 20:45 26.53066 75.12947 38864 ft 495 kts 22°
2026-05-05 20:46 26.74854 75.27318 38871 ft 494 kts 22°
2026-05-05 20:46 26.77822 75.29271 38690 ft 495 kts 22°
2026-05-05 20:46 26.80746 75.31197 38352 ft 493 kts 22°
2026-05-05 20:47 26.83701 75.33144 37826 ft 493 kts 22°
2026-05-05 20:47 26.86654 75.35090 37236 ft 493 kts 22°
2026-05-05 20:47 26.89617 75.37043 36625 ft 493 kts 23°
2026-05-05 20:47 26.92584 75.39001 36004 ft 494 kts 23°
2026-05-05 20:48 26.95549 75.40958 35335 ft 496 kts 23°
2026-05-05 20:48 26.98529 75.42926 34695 ft 498 kts 24°
2026-05-05 20:48 27.01534 75.44911 34039 ft 501 kts 24°
2026-05-05 20:48 27.04574 75.46919 33250 ft 505 kts 25°
2026-05-05 20:49 27.07616 75.48932 32511 ft 507 kts 25°
2026-05-05 20:49 27.10660 75.50949 31823 ft 509 kts 25°
2026-05-05 20:49 27.13716 75.52977 31128 ft 511 kts 26°
2026-05-05 20:49 27.16786 75.55015 30422 ft 513 kts 26°
2026-05-05 20:50 27.19861 75.57058 29664 ft 515 kts 27°
2026-05-05 20:50 27.22957 75.59118 28853 ft 517 kts 27°
2026-05-05 20:50 27.26043 75.61176 28101 ft 516 kts 27°
2026-05-05 20:50 27.29134 75.63238 27473 ft 513 kts 27°
2026-05-05 20:51 27.32181 75.65272 26996 ft 507 kts 27°
2026-05-05 20:51 27.35194 75.67282 26496 ft 501 kts 27°
2026-05-05 20:51 27.38185 75.69277 25962 ft 497 kts 27°
2026-05-05 20:51 27.41150 75.71255 25393 ft 493 kts 27°
2026-05-05 20:52 27.44089 75.73217 24847 ft 489 kts 27°
2026-05-05 20:52 27.47012 75.75170 24261 ft 486 kts 27°
2026-05-05 20:52 27.49871 75.77082 23741 ft 482 kts 28°
2026-05-05 20:52 27.52744 75.79004 23188 ft 477 kts 28°
2026-05-05 20:53 27.55588 75.80908 22629 ft 472 kts 28°
2026-05-05 20:53 27.58389 75.82785 22129 ft 465 kts 28°
2026-05-05 20:53 27.61176 75.84604 21631 ft 459 kts 25°
2026-05-05 20:53 27.64038 75.86170 21148 ft 451 kts 20°
2026-05-05 20:54 27.66937 75.87435 20717 ft 443 kts 16°
2026-05-05 20:54 27.69865 75.88469 20328 ft 439 kts 14°
2026-05-05 20:54 27.72788 75.89444 19911 ft 436 kts 13°
2026-05-05 20:54 27.75689 75.90404 19479 ft 433 kts 13°
2026-05-05 20:55 27.78571 75.91361 19035 ft 429 kts 13°
2026-05-05 20:55 27.81429 75.92316 18594 ft 426 kts 13°
2026-05-05 20:55 27.84257 75.93266 18145 ft 422 kts 14°
2026-05-05 20:55 27.87057 75.94208 17661 ft 418 kts 14°
2026-05-05 20:56 27.89794 75.95131 17202 ft 414 kts 14°
2026-05-05 20:56 27.92538 75.96057 16752 ft 409 kts 14°
2026-05-05 20:56 27.95252 75.96974 16320 ft 405 kts 14°
2026-05-05 20:56 27.97942 75.97885 15877 ft 402 kts 14°
2026-05-05 20:57 28.00598 75.98784 15415 ft 398 kts 14°
2026-05-05 20:57 28.03240 75.99679 15122 ft 390 kts 15°
2026-05-05 20:57 28.05795 76.00549 15091 ft 374 kts 14°
2026-05-05 20:57 28.08238 76.01380 15054 ft 359 kts 14°
2026-05-05 20:58 28.10576 76.02176 15042 ft 344 kts 14°
2026-05-05 20:58 28.12823 76.02940 15019 ft 329 kts 14°
2026-05-05 20:58 28.14972 76.03671 14980 ft 316 kts 14°
2026-05-05 20:58 28.17031 76.04370 14952 ft 302 kts 14°
2026-05-05 20:59 28.19000 76.05038 14905 ft 289 kts 14°
2026-05-05 20:59 28.20883 76.05678 14874 ft 277 kts 15°
2026-05-05 20:59 28.22585 76.06651 14847 ft 277 kts 39°
2026-05-05 20:59 28.23791 76.08375 14613 ft 283 kts 59°
2026-05-05 21:00 28.24686 76.10382 14237 ft 286 kts 63°
2026-05-05 21:00 28.25552 76.12415 13891 ft 286 kts 63°
2026-05-05 21:00 28.26421 76.14449 13546 ft 286 kts 63°
2026-05-05 21:00 28.27297 76.16474 13208 ft 284 kts 63°
2026-05-05 21:01 28.28173 76.18477 12879 ft 282 kts 63°
2026-05-05 21:01 28.29048 76.20468 12566 ft 280 kts 63°
2026-05-05 21:01 28.29920 76.22444 12250 ft 278 kts 63°
2026-05-05 21:01 28.30785 76.24402 11952 ft 276 kts 63°
2026-05-05 21:02 28.31643 76.26344 11642 ft 274 kts 63°
2026-05-05 21:02 28.32495 76.28274 11330 ft 272 kts 63°
2026-05-05 21:02 28.33342 76.30193 11056 ft 270 kts 63°
2026-05-05 21:02 28.34183 76.32101 10771 ft 269 kts 64°
2026-05-05 21:03 28.35017 76.33989 10463 ft 267 kts 64°
2026-05-05 21:03 28.35848 76.35871 10168 ft 265 kts 64°
2026-05-05 21:03 28.36671 76.37741 9884 ft 263 kts 64°
2026-05-05 21:03 28.37474 76.39557 9764 ft 259 kts 64°
2026-05-05 21:04 28.38285 76.41393 9467 ft 260 kts 64°
2026-05-05 21:04 28.39103 76.43249 9158 ft 258 kts 64°
2026-05-05 21:04 28.39890 76.45040 8872 ft 256 kts 64°
2026-05-05 21:04 28.40684 76.46844 8582 ft 254 kts 64°
2026-05-05 21:05 28.41475 76.48642 8306 ft 254 kts 64°
2026-05-05 21:05 28.42263 76.50437 8025 ft 253 kts 64°
2026-05-05 21:05 28.43047 76.52225 7747 ft 252 kts 64°
2026-05-05 21:05 28.43830 76.54006 7471 ft 251 kts 64°
2026-05-05 21:06 28.44607 76.55777 7201 ft 250 kts 64°
2026-05-05 21:06 28.45380 76.57544 6915 ft 248 kts 64°
2026-05-05 21:06 28.46149 76.59297 6665 ft 247 kts 64°
2026-05-05 21:06 28.46915 76.61043 6387 ft 245 kts 64°
2026-05-05 21:07 28.47673 76.62776 6114 ft 244 kts 64°
2026-05-05 21:07 28.48428 76.64501 5837 ft 242 kts 64°
2026-05-05 21:07 28.49178 76.66211 5568 ft 241 kts 65°
2026-05-05 21:07 28.49924 76.67910 5316 ft 239 kts 65°
2026-05-05 21:08 28.50661 76.69600 5057 ft 237 kts 65°
2026-05-05 21:08 28.51394 76.71282 4796 ft 236 kts 65°
2026-05-05 21:08 28.52173 76.72926 4508 ft 236 kts 60°
2026-05-05 21:08 28.53091 76.74470 4241 ft 234 kts 57°
2026-05-05 21:09 28.54028 76.75960 4024 ft 229 kts 57°
2026-05-05 21:09 28.54943 76.77407 3729 ft 220 kts 57°
2026-05-05 21:09 28.55819 76.78787 3511 ft 207 kts 58°
2026-05-05 21:09 28.56623 76.80058 3414 ft 189 kts 58°
2026-05-05 21:10 28.57353 76.81216 3293 ft 172 kts 58°
2026-05-05 21:10 28.58046 76.82312 3142 ft 167 kts 59°
2026-05-05 21:10 28.58712 76.83373 2907 ft 163 kts 60°
2026-05-05 21:10 28.59300 76.84459 2679 ft 157 kts 82°
2026-05-05 21:11 28.59374 76.85700 2617 ft 160 kts 98°
2026-05-05 21:11 28.59216 76.86961 2618 ft 162 kts 103°
2026-05-05 21:11 28.58994 76.88225 2619 ft 163 kts 105°
2026-05-05 21:11 28.58744 76.89486 2609 ft 163 kts 106°
2026-05-05 21:12 28.58480 76.90741 2611 ft 163 kts 106°
2026-05-05 21:12 28.58210 76.91993 2618 ft 163 kts 106°
2026-05-05 21:12 28.57938 76.93247 2619 ft 163 kts 106°
2026-05-05 21:12 28.57664 76.94504 2626 ft 163 kts 106°
2026-05-05 21:13 28.57393 76.95758 2617 ft 163 kts 107°
2026-05-05 21:13 28.57120 76.97014 2532 ft 163 kts 107°
2026-05-05 21:13 28.56848 76.98267 2330 ft 162 kts 107°
2026-05-05 21:13 28.56579 76.99512 2118 ft 162 kts 106°
2026-05-05 21:14 28.56311 77.00756 1918 ft 161 kts 105°
2026-05-05 21:14 28.56135 77.01578 1771 ft 161 kts 105°
2026-05-05 21:14 28.55870 77.02814 1566 ft 160 kts 105°
2026-05-05 21:14 28.55603 77.04046 1372 ft 160 kts 102°
2026-05-05 21:15 28.55343 77.05257 1155 ft 152 kts 101°
2026-05-05 21:15 28.55099 77.06404 941 ft 148 kts 101°
2026-05-05 21:15 28.54858 77.07542 851 ft 148 kts 101°
2026-05-05 21:15 28.54624 77.08673 783 ft 140 kts 101°
2026-05-05 21:16 28.54449 77.09499 782 ft 75 kts 103°
2026-05-05 21:16 28.54389 77.09903 782 ft 57 kts 85°
2026-05-05 21:16 28.54508 77.10098 782 ft 25 kts 304°
2026-05-05 21:16 28.54566 77.09876 782 ft 39 kts 296°
2026-05-05 21:17 28.54736 77.09541 782 ft 59 kts 285°
2026-05-05 21:17 28.54802 77.09149 782 ft 46 kts 284°
2026-05-05 21:17 28.54881 77.08800 782 ft 45 kts 284°
2026-05-05 21:17 28.54951 77.08506 782 ft 38 kts 284°
2026-05-05 21:18 28.55048 77.08315 782 ft 17 kts 334°
2026-05-05 21:18 28.55098 77.08287 782 ft 0 kts 331°